IU3IOK-3 Weather Reports


time (UTC)temp
C
wind
direction
speed
KPH
gust
KPH
rain 1hr
cm
rain 24hr
cm
rain mn
cm
humidity
%
barometer
mb
20260507104141 22 0.0 0.0 0.00 0.00 0.00 51 1012.7
20260507102641 22 0.0 0.0 0.00 0.00 0.00 52 1012.7
20260507101141 22 0.0 0.0 0.00 0.00 0.00 52 1012.8
20260507095641 22 0.0 0.0 0.00 0.00 0.00 56 1012.9
20260507094141 22 0.0 0.0 0.00 0.00 0.00 57 1012.9
20260507092642 22 0.0 0.0 0.00 0.00 0.00 58 1012.8
20260507091142 22 0.0 0.0 0.00 0.00 0.00 64 1012.8
20260507085642 22 0.0 0.0 0.00 0.00 0.00 65 1012.8
20260507084142 21 0.0 0.0 0.00 0.00 0.00 68 1012.8
20260507082642 21 0.0 0.0 0.00 0.00 0.00 67 1012.7
20260507081142 21 0.0 0.0 0.00 0.00 0.00 74 1012.7
20260507075642 21 0.0 0.0 0.00 0.00 0.00 74 1012.7
20260507074142 21 0.0 0.0 0.00 0.00 0.00 73 1012.6
20260507072642 21 0.0 0.0 0.00 0.00 0.00 76 1012.5
20260507071142 21 0.0 0.0 0.00 0.00 0.00 76 1012.4
20260507065642 21 0.0 0.0 0.00 0.00 0.00 75 1012.4
20260507064142 21 0.0 0.0 0.00 0.00 0.00 76 1012.4
20260507062642 20 0.0 0.0 0.00 0.00 0.00 80 1012.3
20260507061142 20 0.0 0.0 0.00 0.00 0.00 85 1012.3
20260507055642 17 0.0 0.0 0.00 0.00 0.00 95 1012.3
20260507054142 16 0.0 0.0 0.00 0.00 0.00 98 1012.1
20260507052642 16 0.0 0.0 0.00 0.00 0.00 99 1012.0
20260507051142 16 0.0 0.0 0.00 0.00 0.00 10 1011.8
20260507045642 16 0.0 0.0 0.00 0.00 0.00 99 1011.7
20260507044142 16 0.0 0.0 0.00 0.00 0.00 10 1011.5
20260507042642 16 0.0 0.0 0.00 0.00 0.00 10 1011.2
20260507041142 16 0.0 0.0 0.00 0.00 0.00 99 1011.0
20260507035642 16 0.0 0.0 0.00 0.00 0.00 10 1010.9
20260507034142 16 0.0 0.0 0.00 0.00 0.00 10 1010.9
20260507032642 16 0.0 0.0 0.00 0.00 0.00 10 1010.9
20260507031141 16 0.0 0.0 0.00 0.00 0.00 10 1010.9
20260507025642 16 0.0 0.0 0.00 0.00 0.00 10 1010.8
20260507024141 16 0.0 0.0 0.00 0.00 0.00 10 1010.9
20260507022641 16 0.0 0.0 0.00 0.00 0.00 10 1011.0
20260507021141 16 0.0 0.0 0.00 0.00 0.00 10 1011.0
20260507015641 16 0.0 0.0 0.00 0.00 0.00 99 1010.9
20260507014141 16 0.0 0.0 0.00 0.00 0.00 99 1010.8
20260507012641 16 0.0 0.0 0.00 0.00 0.00 98 1010.8
20260507011141 16 0.0 0.0 0.00 0.00 0.00 98 1010.9
20260507005641 16 0.0 0.0 0.00 0.00 0.00 97 1010.9
20260507004141 16 0.0 0.0 0.00 0.00 0.00 98 1010.8
20260507002641 16 0.0 0.0 0.00 0.00 0.00 98 1010.6
20260507001141 16 0.0 0.0 0.00 0.00 0.00 97 1010.7
20260506235641 16 0.0 0.0 0.00 0.00 0.00 98 1010.9
20260506234141 16 0.0 0.0 0.00 0.00 0.00 97 1010.8
20260506232641 16 0.0 0.0 0.00 0.00 0.00 97 1010.7
20260506231141 16 0.0 0.0 0.00 0.00 0.00 97 1010.8
20260506225641 16 0.0 0.0 0.00 0.00 0.00 97 1010.6
20260506224141 16 0.0 0.0 0.00 0.00 0.00 96 1010.7
20260506222641 16 0.0 0.0 0.00 0.00 0.00 96 1010.8
20260506221141 16 0.0 0.0 0.00 0.00 0.00 96 1010.7
20260506215641 17 0.0 0.0 0.00 0.00 0.00 95 1010.6
20260506214141 17 0.0 0.0 0.00 0.00 0.00 96 1010.6
20260506212641 17 0.0 0.0 0.00 0.00 0.00 95 1010.6
20260506211141 17 0.0 0.0 0.00 0.00 0.00 95 1010.7
20260506205641 17 0.0 0.0 0.00 0.00 0.00 95 1010.5
20260506204141 17 0.0 0.0 0.00 0.00 0.00 95 1010.6
20260506202641 17 0.0 0.0 0.00 0.00 0.00 95 1010.5
20260506201141 17 0.0 0.0 0.00 0.00 0.00 95 1010.5